This is the latest recevied weather packets stored in our database for station/object DL1GRJ-13. If no packets are shown the sender has not sent any weather packets the latest 10 day(s).
| Time | Temp. | Humidity | Pressure | Rain* | Wind** | Luminosity | Snow |
|---|---|---|---|---|---|---|---|
| 1777761055 | 13.89° C | 49% | 1019.8 hPa | - | - | - | - |
| 1777759255 | 14.44° C | 49% | 1019.7 hPa | - | - | - | - |
| 1777757455 | 14.44° C | 49% | 1019.8 hPa | - | - | - | - |
| 1777755655 | 15° C | 48% | 1019.7 hPa | - | - | - | - |
| 1777753855 | 15.56° C | 48% | 1019.8 hPa | - | - | - | - |
| 1777752055 | 15.56° C | 47% | 1019.9 hPa | - | - | - | - |
| 1777750254 | 16.67° C | 45% | 1019.8 hPa | - | - | - | - |
| 1777748454 | 18.33° C | 41% | 1019.8 hPa | - | - | - | - |
| 1777746654 | 19.44° C | 38% | 1019.7 hPa | - | - | - | - |
| 1777744854 | 22.22° C | 34% | 1019.5 hPa | - | - | - | - |
| 1777743054 | 25° C | 29% | 1019.3 hPa | - | - | - | - |
| 1777741254 | 25.56° C | 28% | 1019.5 hPa | - | - | - | - |
| 1777739453 | 26.67° C | 25% | 1019.8 hPa | - | - | - | - |
| 1777737653 | 26.67° C | 25% | 1020.1 hPa | - | - | - | - |
| 1777735853 | 23.89° C | 28% | 1020.4 hPa | - | - | - | - |
| 1777734052 | 23.89° C | 31% | 1020.7 hPa | - | - | - | - |
| 1777732252 | 23.89° C | 28% | 1021 hPa | - | - | - | - |
| 1777730452 | 23.89° C | 24% | 1021.3 hPa | - | - | - | - |
| 1777728652 | 26.67° C | 23% | 1021.5 hPa | - | - | - | - |
| 1777726852 | 25° C | 23% | 1021.7 hPa | - | - | - | - |
| 1777725052 | 26.11° C | 24% | 1022 hPa | - | - | - | - |
| 1777723252 | 25.56° C | 23% | 1022.4 hPa | - | - | - | - |
| 1777721452 | 26.11° C | 22% | 1022.6 hPa | - | - | - | - |
| 1777719651 | 23.89° C | 24% | 1022.9 hPa | - | - | - | - |
| 1777717851 | 22.78° C | 26% | 1023.1 hPa | - | - | - | - |
* Rain since midnight (hover to see other rain measurements)
** Current wind speed in m/s (hover to see current wind gust speed)